Location: Brahman Valley
(40.6513°N, 111.8855°W)
Time: 21:10:12
(UTC+00:00)

Vanguard 2 - Pass Details

Date: 20 May 2021
Orbit: 552 x 2937 km, 32.9° (Epoch: 14 June)

Event Time Altitude Azimuth Distance (km) Brightness Sun altitude
Rises 09:47:05 0° 213° (SSW) 3,188 - -20.8°
Reaches altitude 10° 09:49:37 10° 197° (SSW) 2,490 - -20.5°
Exits shadow 09:52:21 21° 170° (S) 2,082 9.3 -20.2°
Maximum altitude 09:54:17 24° 145° (SE) 2,120 9.6 -20.0°
Drops below altitude 10° 10:00:52 10° 97° (E) 3,654 11.4 -19.2°
Sets 10:05:32 0° 86° (E) 5,114 12.4 -18.6°
